Regional Weather Roundup
Issued by NWS

Current Version | Previous Version | Text Only | Print | Product List | Glossary On
Versions: 1 2 3 4 5 6 7 8 9 10 11 12 13 14 15 16 17 18 19 20 21 22 23 24 25 26 27 28 29 30 31 32 33 34 35 36 37 38 39 40 41 42 43 44 45 46 47 48 49 50
000
ASUS44 KFWD 241015
RWRTX
NORTH TEXAS HOURLY WEATHER ROUNDUP
NATIONAL WEATHER SERVICE FORT WORTH TX
500 AM CDT THU JUL 24 2014

NOTE: "FAIR" INDICATES FEW OR NO CLOUDS BELOW 12,000 FEET WITH NO
SIGNIFICANT WEATHER AND/OR OBSTRUCTIONS TO VISIBILITY.

TXZ118-119-241100-
DALLAS/FORT WORTH METROPLEX

CITY           SKY/WX    TMP DP  RH WIND       PRES   REMARKS
DFW AIRPORT    MOCLDY    77  66  68 SE3       30.03R
DALLAS LOVE    MOCLDY    75  69  81 E5        30.04R
FTW MEACHAM    MOCLDY    77  66  68 E3        30.03R
DAL-EXECUTIVE  CLOUDY    75  68  78 CALM      30.03S
FTW-ALLIANCE   MOCLDY    72  67  84 SE6       30.03R
FTW-NAS-JRB    MOCLDY    79  63  57 CALM      30.07R
FTW-SPINKS     CLOUDY    74  66  77 CALM      30.05R
ARLINGTON      MOCLDY    75  66  73 CALM      30.04R
GRAND PRAIRIE  MOCLDY    75  65  70 CALM      30.05R
ADDISON        MOCLDY    76  68  77 CALM      30.06R
MESQUITE       PTCLDY    70  68  92 CALM      30.04R
LANCASTER      MOCLDY    72  66  81 CALM      30.04S
$$

TXZ091>094-102>105-117-120-121-131>134-241100-
NORTH CENTRAL TEXAS

CITY           SKY/WX    TMP DP  RH WIND       PRES   REMARKS
SHRMAN/DENISON PTCLDY    71  68  89 E6        30.06R
GAINESVILLE    PTCLDY    73  68  84 CALM      30.05R
BOWIE          PTCLDY    72  71  96 CALM      30.03S
BRIDGEPORT     PTCLDY    72  67  85 CALM      30.03S
DECATUR        PTCLDY    74  67  77 CALM      30.03R
DENTON         PTCLDY    74  68  81 SE7       30.04R
MCKINNEY       MOCLDY    71  69  93 CALM      30.05R
GREENVILLE     CLOUDY    70  68  94 CALM      30.04R
TERRELL        CLEAR     70  69  97 SE3       30.04R
WAXAHACHIE     CLOUDY    73  65  78 CALM      30.05R
CLEBURNE       CLOUDY    75  70  83 NE3       30.05R
GRANBURY       MOCLDY    76  66  70 CALM      30.04F
$$

TXZ083>090-098>101-113>116-127>130-139>142-154-155-241100-
WESTERN NORTH TEXAS

CITY           SKY/WX    TMP DP  RH WIND       PRES   REMARKS
WICHITA FALLS  PTCLDY    75  71  87 CALM      30.03R
WF-KICKAPOO    PTCLDY    76  72  86 CALM      30.04S
VERNON         MOCLDY    78  72  83 E3        30.06S
ABILENE        PTCLDY    76  65  68 S7        30.07F
ABILENE-DYESS  PTCLDY    75  65  69 S6        30.07F
BRECKENRIDGE   MOCLDY    78  66  66 S3        30.04S
MINERAL WELLS  PTCLDY    73  65  75 SE3       30.01S
STEPHENVILLE   PTCLDY    74  65  75 CALM      30.07R
COMANCHE       CLOUDY    74  67  80 CALM      30.04F
BROWNWOOD      CLOUDY    73  68  83 CALM      30.05F
COLEMAN        PTCLDY    73  66  80 W3        30.08R
BRADY          CLEAR     75  66  73 S3        30.06F
$$

TXZ143>147-156>162-174-175-241100-
CENTRAL TEXAS

CITY           SKY/WX    TMP DP  RH WIND       PRES   REMARKS
WACO           CLOUDY    75  67  76 CALM      30.01S
WACO-MCGREGOR  CLOUDY    75  64  69 CALM      30.04R
HILLSBORO      CLOUDY    74  66  75 NE6       30.04R
CORSICANA      MOCLDY    73  69  87 E3        30.04R
MEXIA          CLOUDY    71  68  92 CALM      30.03S
HEARNE         LGT RAIN  79  77  94 N3        30.03R
CAMERON        LGT RAIN  75  70  82 E5        30.02R
TEMPLE         CLOUDY    73  64  73 NE3       30.02R
KILLEEN        NOT AVBL
KILLEEN-SKYLRK CLOUDY    75  64  69 CALM      30.02R
FORT HOOD      CLOUDY    78  69  73 CALM      30.02S
GATESVILLE     CLOUDY    75  68  78 CALM      30.04S
HAMILTON       MOCLDY    74  68  80 W3        30.05R
LAMPASAS       MOCLDY    76  71  85 CALM      30.02S
$$

TXZ095>097-106>112-122>126-135>138-148>153-164>167-241100-
EAST TEXAS

CITY           SKY/WX    TMP DP  RH WIND       PRES   REMARKS
PARIS          PTCLDY    66  61  82 S6        30.04R VSB 3/4
SULPHUR SPRNGS CLOUDY    69  68  97 CALM      30.06R
CLARKSVILLE    CLOUDY    68  67  99 CALM      30.04R VSB 1/2
MOUNT PLEASANT CLOUDY    68  67  99 CALM      30.05S VSB 1/4
GILMER         CLEAR     70  70 100 CALM      30.05R FOG
MINEOLA        CLEAR     70  70 100 CALM      30.04S FOG
TYLER          CLEAR     68  66  93 CALM      30.04R
LONGVIEW       CLOUDY    69  67  93 W3        30.03R FOG
MARSHALL       CLOUDY    71  69  93 CALM      30.06R VSB 1
JACKSONVILLE   PTCLDY    68  67  96 N3        30.06R
HENDERSON      PTCLDY    67  67 100 CALM      30.04S FOG
NACOGDOCHES    PTCLDY    66  64  94 NW3       30.04R
LUFKIN         CLEAR     71  67  87 N6        30.02R
$$

SUPPLEMENTAL OBSERVATIONS (CENTRAL)

CITY           SKY/WX    TMP DP  RH WIND       PRES   REMARKS
LAKE TEXOMA      N/A     70  70 100 E6          N/A
PAT MAYSE LAKE   N/A     66  64  94 NW2         N/A
PALESTINE        N/A     66  64  94 SE1         N/A
LAKE LIMESTONE   N/A     70  68  94 SW7         N/A
MCGREGOR         N/A     73  66  78 CALM        N/A
TEMPLE           N/A     75  68  78 NE2         N/A
$$

SUPPLEMENTAL OBSERVATIONS (WEST)

CITY           SKY/WX    TMP DP  RH WIND       PRES   REMARKS
POSSUM KINGDOM   N/A     75  63  64 W1          N/A
GRANBURY         N/A     75  64  69 SW1         N/A
COMANCHE         N/A     72  64  78 E3          N/A
HAMBY            N/A     73  63  68 S3          N/A
IVIE RESERVOIR   N/A     72  64  78 CALM        N/A
COLORADO BEND    N/A     73  66  78 W2          N/A
$$

SUPPLEMENTAL OBSERVATIONS (EAST)

CITY           SKY/WX    TMP DP  RH WIND       PRES   REMARKS
CLARKSVILLE      N/A     66  64  94 CALM        N/A
TEXARKANA        N/A     70  68  94 N2          N/A
LINDEN           N/A     70  68  94 W1          N/A
CADDO LAKE       N/A     70  68  94 CALM        N/A
GILMER           N/A     68  64  88 CALM        N/A
HENDERSON        N/A     68  64  88 CALM        N/A
LUFKIN           N/A     70  68  94 MISG        N/A
S SABINE NF      N/A     68  64  88 CALM        N/A
$$

SUPPLEMENTAL OBSERVATIONS ARE A COLLECTION OF AUTOMATED INSTRUMENTS
THAT ARE MAINTAINED BY A VARIETY OF FEDERAL AND STATE AGENCIES.
CERTAIN ELEMENTS...SUCH AS HUMIDITY VALUES AND SUSTAINED WIND
SPEEDS...MAY BE APPROXIMATED.



USA.gov is the U.S. government's official web portal to all federal, state and local government web resources and services.